Location: Le Hiès Ruisseau
(43.3000°N, 0.4500°W)
Time: 02:31:13
(UTC+00:00)

CZ-4B R/B - Pass Details

Date: 28 January 2023
Orbit: 809 x 881 km, 99.0° (Epoch: 27 March)

Event Time Altitude Azimuth Distance (km) Brightness Sun altitude
Rises 17:29:53 0° 117° (ESE) 3,328 5.9 -4.5°
Reaches altitude 10° 17:32:57 10° 99° (E) 2,409 5.0 -5.0°
Maximum altitude 17:36:20 17° 59° (ENE) 1,950 4.5 -5.6°
Drops below altitude 10° 17:39:45 10° 19° (NNE) 2,442 5.3 -6.2°
Sets 17:42:52 0° 1° (N) 3,394 6.1 -6.7°
